User: anonymous   Login
Location: Albany
(35.0000°S, 118.0000°E)
Time: 03:59:48
(UTC-05:00)
Language:

Cosmos 1758 Rocket - Orbit

View from above orbital plane
View from above orbital plane
View from above satellite
View from above satellite

Ground track
Ground track

The orbit data is extracted from the following two-line orbital elements,

1 16792U 86046B   17055.39374324  .00000123  00000-0  12197-4 0  9992
2 16792  82.4840 308.5406 0023061 306.9143 172.4928 14.83117428658165
Epoch (UTC): 24 February 2017 09:26:59
Eccentricity: 0.0023061
inclination: 82.4840°
perigee height: 603 km
apogee height: 635 km
right ascension of ascending node: 308.5406°
argument of perigee: 306.9143°
revolutions per day: 14.83117428
mean anomaly at epoch: 172.4928°
orbit number at epoch: 65816

The dashed part of the orbit path shows where the satellite is in the earth's shadow,  

DLR